Flag for Austria Weather past 2 weeks in Waidhofen an der Thaya, Lower Austria, Austria

Now
67 °F

Mild.


Feels Like: 67 °F
Forecast: 51 / 71 °F
Wind: 6 mph from Southeast

Location: Retz

Current Time: Sep 18, 2014 at 5:48:16 PM

Latest Report: Sep 18, 2014 at 5:00 PM


Visibility: N/A

Pressure: 29.99 "Hg

Humidity: 58%

Dew point: 52 °F

Location of Waidhofen an der ThayaLocation

Historic Weather in Waidhofen an der Thaya — Graph

°F

Waidhofen an der Thaya temperature yesterday

Maximum temperature yesterday: 69 °F (at 3:00 PM)
Minimum temperature yesterday: 55 °F (at 7:00 AM)
Average temperature yesterday: 62 °F

Past Weeks' High & Low Weather Summary

 TemperatureHumidityPressure
High76 °F (Sep 4, 4:00 PM)99% (Sep 14, 9:00 AM)30.09 "Hg (Sep 14, 9:00 AM)
Low53 °F (Sep 18, 7:00 AM)52% (Sep 8, 4:00 PM)29.77 "Hg (Sep 12, 6:00 AM)
Average63 °F81%29.99 "Hg
* Reported Sep 3 4:00 PM — Sep 18 4:00 PM, Waidhofen an der Thaya, Weather by CustomWeather, © 2014

Note: Actual official high and low records may vary slightly from our data, if they occured in-between our weather recording intervals... More about our weather records

Advertising

Waidhofen an der Thaya weather history for previous 24 hours

 ConditionsComfort  
Time TempWeatherWind HumidityBarometerVisibility
4:00 PM
Sep 18
68 °FMild.7 mph55%29.99 "HgN/A
3:00 PM67 °FMild.9 mph55%30.00 "HgN/A
2:00 PM67 °FPassing clouds.8 mph55%30.00 "Hg14 mi
1:00 PM67 °FMild.7 mph56%30.01 "HgN/A
12:00 PM66 °FMild.7 mph57%30.01 "HgN/A
11:00 AM65 °FMild.6 mph61%30.02 "HgN/A
10:00 AM62 °FCool.6 mph65%30.02 "HgN/A
9:00 AM59 °FCool.3 mph74%30.02 "HgN/A
8:00 AM56 °FPassing clouds.5 mph80%30.02 "Hg7 mi
7:00 AM53 °FSunny.5 mph85%30.02 "Hg6 mi
6:00 AM53 °FCool.5 mph88%30.01 "HgN/A
5:00 AM55 °FCool.3 mph86%30.01 "HgN/A
4:00 AM56 °FCool.3 mph87%30.01 "HgN/A
3:00 AM56 °FCool.5 mph91%30.01 "HgN/A
2:00 AM55 °FCool.5 mph92%30.03 "HgN/A
1:00 AM58 °FCool.5 mph84%30.02 "HgN/A
12:00 AM59 °FCool.3 mph82%30.02 "HgN/A
11:00 PM
Sep 17
61 °FCool.2 mph78%30.03 "HgN/A
10:00 PM61 °FCool.3 mph76%30.03 "HgN/A
9:00 PM62 °FCool.2 mph77%30.03 "HgN/A
8:00 PM63 °FClear.2 mph73%30.01 "Hg11 mi
7:00 PM65 °FMild.3 mph67%30.00 "HgN/A
6:00 PM68 °FMild.6 mph61%30.00 "HgN/A
5:00 PM69 °FMild.7 mph59%30.00 "HgN/A
Weather by CustomWeather, © 2014

See weather overviewHow to use our weather pages